FW4132 Weather Reports


Display with metric or nautical units.
time (UTC)temp
F
wind
direction
speed
MPH
gust
MPH
rain 1hr
in
rain 24hr
in
rain mn
in
humidity
%
barometer
mb
20260901222509 69 146 6.0 15.0 0.00 0.00 0.00 40 1010.7
20260901222413 69 122 6.0 14.0 0.00 0.00 0.00 40 1011.9
20260901222007 69 111 6.0 14.0 0.00 0.00 0.00 40 1010.6
20260901221643 69 101 7.0 14.0 0.00 0.00 0.00 43 1011.8
20260901221523 69 98 8.0 15.0 0.00 0.00 0.00 43 1010.5
20260901221137 70 98 7.0 15.0 0.00 0.00 0.00 41 1011.8
20260901221006 70 76 5.0 15.0 0.00 0.00 0.00 42 1010.4
20260901220631 70 117 7.0 15.0 0.00 0.00 0.00 41 1011.9
20260901220507 70 111 7.0 14.0 0.00 0.00 0.00 40 1010.4
20260901220125 71 106 5.0 11.0 0.00 0.00 0.00 40 1011.7
20260901220013 70 93 4.0 13.0 0.00 0.00 0.00 41 1010.4
20260901215619 71 100 5.0 15.0 0.00 0.00 0.00 38 1011.8
20260901215507 71 157 3.0 15.0 0.00 0.00 0.00 38 1010.4
20260901215113 71 111 3.0 15.0 0.00 0.00 0.00 38 1011.8
20260901215010 71 107 7.0 15.0 0.00 0.00 0.00 36 1010.4
20260901214607 71 112 1.0 7.0 0.00 0.00 0.00 38 1011.8
20260901214507 71 160 1.0 4.0 0.00 0.00 0.00 37 1010.5
20260901214101 72 238 2.0 4.0 0.00 0.00 0.00 36 1012.0
20260901214009 71 237 1.0 4.0 0.00 0.00 0.00 35 1010.4
20260901213510 71 164 0.0 4.0 0.00 0.00 0.00 36 1010.6
20260901213049 72 67 2.0 4.0 0.00 0.00 0.00 39 1012.0
20260901213029 72 125 1.0 4.0 0.00 0.00 0.00 36 1010.7
20260901212807 72 174 2.0 7.0 0.00 0.00 0.00 36 1012.0
20260901212503 72 161 0.0 7.0 0.00 0.00 0.00 36 1010.8
20260901212037 72 173 2.0 7.0 0.00 0.00 0.00 37 1012.3
20260901212005 72 224 1.0 7.0 0.00 0.00 0.00 39 1010.9
20260901211531 72 217 2.0 5.0 0.00 0.00 0.00 37 1012.3
20260901211511 71 219 1.0 5.0 0.00 0.00 0.00 36 1010.9
20260901211024 72 234 1.0 5.0 0.00 0.00 0.00 36 1012.3
20260901211003 71 234 1.0 5.0 0.00 0.00 0.00 36 1010.8
20260901210519 71 240 1.0 4.0 0.00 0.00 0.00 39 1012.3
20260901210508 71 239 0.0 4.0 0.00 0.00 0.00 38 1010.8
20260901210025 71 174 0.0 4.0 0.00 0.00 0.00 38 1010.9
20260901210012 71 174 1.0 4.0 0.00 0.00 0.00 38 1012.1
20260901205507 71 198 1.0 6.0 0.00 0.00 0.00 37 1010.9
20260901205004 71 87 1.0 6.0 0.00 0.00 0.00 33 1010.9
20260901205001 72 87 1.0 6.0 0.00 0.00 0.00 34 1012.3
20260901204520 72 322 3.0 6.0 0.00 0.00 0.00 31 1010.9
20260901204455 72 319 1.0 6.0 0.00 0.00 0.00 31 1012.3
20260901204011 72 159 0.0 2.0 0.00 0.00 0.00 34 1010.9
20260901203511 72 194 0.0 3.0 0.00 0.00 0.00 38 1010.9
20260901203443 73 194 1.0 3.0 0.00 0.00 0.00 38 1012.4
20260901203024 72 194 0.0 4.0 0.00 0.00 0.00 35 1011.1
20260901202937 73 194 1.0 4.0 0.00 0.00 0.00 34 1012.4
20260901202511 73 192 0.0 4.0 0.00 0.00 0.00 31 1011.0
20260901202431 73 192 1.0 4.0 0.00 0.00 0.00 31 1012.4
20260901202017 73 99 1.0 4.0 0.00 0.00 0.00 35 1011.0
20260901201927 74 95 0.0 2.0 0.00 0.00 0.00 35 1012.4
20260901201510 73 267 0.0 3.0 0.00 0.00 0.00 36 1010.9
20260901201419 73 267 1.0 3.0 0.00 0.00 0.00 34 1012.1
20260901201009 73 267 0.0 3.0 0.00 0.00 0.00 30 1010.9
20260901200912 74 267 1.0 3.0 0.00 0.00 0.00 30 1012.1
20260901200511 73 207 0.0 6.0 0.00 0.00 0.00 30 1010.7
20260901200407 74 134 2.0 8.0 0.00 0.00 0.00 33 1012.0
20260901200011 74 134 0.0 8.0 0.00 0.00 0.00 30 1010.7
20260901195900 74 134 2.0 8.0 0.00 0.00 0.00 31 1012.0
20260901195623 74 113 2.0 8.0 0.00 0.00 0.00 33 1012.1
20260901195506 74 113 4.0 8.0 0.00 0.00 0.00 33 1010.8
20260901195010 75 230 2.0 8.0 0.00 0.00 0.00 33 1011.0
20260901194849 76 144 3.0 10.0 0.00 0.00 0.00 35 1012.4
20260901194520 75 112 2.0 10.0 0.00 0.00 0.00 33 1011.0
20260901194349 76 114 4.0 10.0 0.00 0.00 0.00 31 1012.4
20260901194012 75 90 5.0 10.0 0.00 0.00 0.00 33 1011.1
20260901193849 75 123 2.0 9.0 0.00 0.00 0.00 34 1012.4
20260901193513 74 105 4.0 9.0 0.00 0.00 0.00 33 1011.2
20260901193349 74 97 3.0 9.0 0.00 0.00 0.00 33 1012.6
20260901193024 74 321 0.0 13.0 0.00 0.00 0.00 32 1011.4
20260901192850 74 320 5.0 13.0 0.00 0.00 0.00 32 1012.7
20260901192515 74 113 4.0 13.0 0.00 0.00 0.00 36 1011.4
20260901192347 74 101 5.0 13.0 0.00 0.00 0.00 33 1012.8
20260901192101 74 109 2.0 8.0 0.00 0.00 0.00 37 1012.9
20260901192006 74 116 3.0 10.0 0.00 0.00 0.00 35 1011.5
20260901191527 73 114 4.0 7.0 0.00 0.00 0.00 37 1011.5
20260901191345 73 90 1.0 7.0 0.00 0.00 0.00 36 1013.1
20260901191013 73 282 0.0 6.0 0.00 0.00 0.00 33 1011.5
20260901190845 73 281 2.0 6.0 0.00 0.00 0.00 34 1013.3
20260901190514 72 121 2.0 12.0 0.00 0.00 0.00 38 1011.6
20260901190343 73 111 4.0 13.0 0.00 0.00 0.00 37 1013.4
20260901190039 72 110 2.0 13.0 0.00 0.00 0.00 36 1011.7
20260901185841 73 106 3.0 13.0 0.00 0.00 0.00 37 1013.3
20260901185517 72 102 7.0 13.0 0.00 0.00 0.00 37 1011.6
20260901185341 72 108 2.0 10.0 0.00 0.00 0.00 37 1013.4
20260901185018 71 118 1.0 10.0 0.00 0.00 0.00 37 1011.8
20260901184841 72 116 5.0 11.0 0.00 0.00 0.00 38 1013.4
20260901184608 72 101 5.0 12.0 0.00 0.00 0.00 39 1013.3
20260901184518 71 112 2.0 12.0 0.00 0.00 0.00 38 1011.8
20260901184006 71 109 7.0 12.0 0.00 0.00 0.00 40 1011.5
20260901183837 72 86 3.0 12.0 0.00 0.00 0.00 40 1013.1
20260901183511 71 105 3.0 12.0 0.00 0.00 0.00 39 1011.4
20260901183337 71 100 3.0 12.0 0.00 0.00 0.00 41 1013.1
20260901183028 70 94 2.0 12.0 0.00 0.00 0.00 42 1011.4
20260901182837 71 85 3.0 12.0 0.00 0.00 0.00 42 1013.1
20260901182502 69 98 4.0 12.0 0.00 0.00 0.00 41 1011.6
20260901182336 69 117 1.0 8.0 0.00 0.00 0.00 41 1013.3
20260901182004 68 126 1.0 4.0 0.00 0.00 0.00 42 1011.7
20260901181831 69 306 1.0 3.0 0.00 0.00 0.00 41 1013.2
20260901181555 69 306 1.0 3.0 0.00 0.00 0.00 40 1013.3
20260901181506 68 306 0.0 3.0 0.00 0.00 0.00 40 1011.7
20260901181001 69 306 1.0 3.0 0.00 0.00 0.00 39 1011.9
20260901180819 69 306 1.0 4.0 0.00 0.00 0.00 41 1013.4
20260901180503 68 306 0.0 4.0 0.00 0.00 0.00 40 1011.9
20260901180313 69 306 1.0 4.0 0.00 0.00 0.00 41 1013.3
20260901180007 68 306 1.0 5.0 0.00 0.00 0.00 40 1011.8
20260901175807 69 299 2.0 5.0 0.00 0.00 0.00 41 1013.3
20260901175504 68 281 1.0 6.0 0.00 0.00 0.00 40 1011.8
20260901175306 69 278 2.0 6.0 0.00 0.00 0.00 40 1013.3
20260901175002 68 315 2.0 6.0 0.00 0.00 0.00 40 1011.8
20260901174805 69 300 2.0 6.0 0.00 0.00 0.00 40 1013.3
20260901174503 68 317 1.0 5.0 0.00 0.00 0.00 41 1011.9
20260901174304 69 316 2.0 5.0 0.00 0.00 0.00 40 1013.4
20260901174001 68 310 1.0 4.0 0.00 0.00 0.00 41 1012.0
20260901173805 69 280 1.0 4.0 0.00 0.00 0.00 42 1013.5
20260901173502 68 277 0.0 4.0 0.00 0.00 0.00 41 1012.0
20260901173305 68 302 1.0 4.0 0.00 0.00 0.00 41 1013.5
20260901173002 68 302 0.0 4.0 0.00 0.00 0.00 42 1012.1
20260901172805 68 302 1.0 4.0 0.00 0.00 0.00 41 1013.7
20260901172504 68 302 1.0 4.0 0.00 0.00 0.00 41 1012.3
20260901172003 68 302 1.0 3.0 0.00 0.00 0.00 42 1012.3
20260901171805 68 172 0.0 3.0 0.00 0.00 0.00 44 1013.7
20260901171531 68 113 0.0 2.0 0.00 0.00 0.00 43 1013.7
20260901171502 68 172 0.0 2.0 0.00 0.00 0.00 44 1012.5
20260901171003 67 113 0.0 2.0 0.00 0.00 0.00 44 1012.5
20260901170801 67 113 1.0 2.0 0.00 0.00 0.00 46 1013.6
20260901170505 66 113 0.0 2.0 0.00 0.00 0.00 46 1012.4
20260901170301 67 113 1.0 2.0 0.00 0.00 0.00 46 1013.6
20260901170004 65 113 0.0 2.0 0.00 0.00 0.00 46 1012.3
20260901165801 66 113 1.0 2.0 0.00 0.00 0.00 47 1013.6
20260901165502 65 113 0.0 2.0 0.00 0.00 0.00 46 1012.4
20260901165301 65 113 1.0 2.0 0.00 0.00 0.00 50 1013.5
20260901165002 64 113 0.0 3.0 0.00 0.00 0.00 51 1012.3
20260901164801 64 113 1.0 3.0 0.00 0.00 0.00 53 1013.5
20260901164524 63 113 2.0 4.0 0.00 0.00 0.00 58 1013.6
20260901164509 63 113 1.0 3.0 0.00 0.00 0.00 56 1012.5
20260901164005 62 113 0.0 6.0 0.00 0.00 0.00 58 1012.4
20260901163503 61 113 2.0 6.0 0.00 0.00 0.00 62 1012.5
20260901163300 61 111 2.0 6.0 0.00 0.00 0.00 63 1013.7
20260901163017 59 121 3.0 4.0 0.00 0.00 0.00 65 1012.5
20260901162801 59 115 0.0 4.0 0.00 0.00 0.00 75 1013.6
20260901162507 58 119 0.0 0.0 0.00 0.00 0.00 81 1012.3
20260901162257 58 119 0.0 0.0 0.00 0.00 0.00 83 1013.5
20260901162014 57 119 0.0 0.0 0.00 0.00 0.00 82 1013.6
20260901162001 57 119 0.0 0.0 0.00 0.00 0.00 82 1012.3
20260901161508 56 119 0.0 0.0 0.00 0.00 0.00 83 1012.3
20260901161256 56 119 0.0 0.0 0.00 0.00 0.00 84 1013.6
20260901161004 55 119 0.0 0.0 0.00 0.00 0.00 83 1012.3
20260901160757 55 119 0.0 0.0 0.00 0.00 0.00 83 1013.7
20260901160515 54 119 0.0 0.0 0.00 0.00 0.00 84 1013.6
20260901160502 54 119 0.0 0.0 0.00 0.00 0.00 82 1012.4
20260901160003 53 119 0.0 0.0 0.00 0.00 0.00 83 1012.4
20260901155757 53 119 0.0 0.0 0.00 0.00 0.00 85 1013.6
20260901155503 52 119 0.0 0.0 0.00 0.00 0.00 85 1012.5
20260901155256 52 119 0.0 0.0 0.00 0.00 0.00 85 1013.7
20260901155004 51 119 0.0 0.0 0.00 0.00 0.00 87 1012.5
20260901154757 51 119 0.0 0.0 0.00 0.00 0.00 88 1013.9
20260901154507 50 119 0.0 0.0 0.00 0.00 0.00 90 1012.5
20260901154257 50 119 0.0 0.0 0.00 0.00 0.00 92 1013.9
20260901154012 49 119 0.0 0.0 0.00 0.00 0.00 92 1014.0
20260901154003 49 119 0.0 0.0 0.00 0.00 0.00 92 1012.6
20260901153503 48 119 0.0 0.0 0.00 0.00 0.00 91 1012.6
20260901153245 48 119 0.0 0.0 0.00 0.00 0.00 92 1013.9
20260901153004 47 117 0.0 0.0 0.00 0.00 0.00 92 1012.6
20260901152741 47 117 0.0 0.0 0.00 0.00 0.00 93 1014.1
20260901152504 46 117 0.0 0.0 0.00 0.00 0.00 93 1012.8
20260901152239 46 117 0.0 0.0 0.00 0.00 0.00 94 1014.1
20260901152005 46 118 0.0 0.0 0.00 0.00 0.00 94 1012.9
20260901151737 46 119 0.0 0.0 0.00 0.00 0.00 94 1014.2
20260901151519 45 119 0.0 0.0 0.00 0.00 0.00 94 1012.8
20260901151235 45 119 0.0 0.0 0.00 0.00 0.00 94 1014.1
20260901151002 45 119 0.0 0.0 0.00 0.00 0.00 94 1012.9
20260901150735 45 120 0.0 0.0 0.00 0.00 0.00 94 1014.2
20260901150504 44 120 0.0 0.0 0.00 0.00 0.00 93 1012.9
20260901150234 44 120 0.0 0.0 0.00 0.00 0.00 94 1014.2
20260901150008 44 120 0.0 0.0 0.00 0.00 0.00 93 1012.8
20260901145733 44 120 0.0 0.0 0.00 0.00 0.00 94 1014.2
20260901145503 44 120 0.0 0.0 0.00 0.00 0.00 93 1012.8
20260901145232 44 120 0.0 0.0 0.00 0.00 0.00 93 1014.2
20260901145003 43 120 0.0 0.0 0.00 0.00 0.00 93 1012.8
20260901144733 44 120 0.0 0.0 0.00 0.00 0.00 93 1014.1
20260901144506 43 120 0.0 0.0 0.00 0.00 0.00 93 1012.8
20260901144233 43 120 0.0 0.0 0.00 0.00 0.00 93 1014.2
20260901144003 43 120 0.0 0.0 0.00 0.00 0.00 93 1012.8
20260901143959 43 120 0.0 0.0 0.00 0.00 0.00 93 1014.2
20260901143503 42 120 0.0 0.0 0.00 0.00 0.00 93 1012.8
20260901143231 43 120 0.0 0.0 0.00 0.00 0.00 93 1014.1
20260901143008 42 120 0.0 0.0 0.00 0.00 0.00 92 1012.8
20260901142951 42 120 0.0 0.0 0.00 0.00 0.00 93 1014.1
20260901142507 42 120 0.0 0.0 0.00 0.00 0.00 92 1012.8
20260901142230 42 120 0.0 0.0 0.00 0.00 0.00 92 1014.1
20260901142007 42 120 0.0 0.0 0.00 0.00 0.00 91 1012.8
20260901141731 42 120 0.0 0.0 0.00 0.00 0.00 91 1014.1
20260901141506 42 120 0.0 0.0 0.00 0.00 0.00 91 1012.8
20260901141230 42 120 0.0 0.0 0.00 0.00 0.00 91 1014.0
20260901141005 41 120 0.0 0.0 0.00 0.00 0.00 90 1012.8
20260901140731 42 120 0.0 0.0 0.00 0.00 0.00 90 1014.0
20260901140507 41 120 0.0 0.0 0.00 0.00 0.00 90 1012.8
20260901140230 42 120 0.0 0.0 0.00 0.00 0.00 90 1014.0
20260901140024 41 120 0.0 0.0 0.00 0.00 0.00 89 1012.8
20260901135724 42 120 0.0 0.0 0.00 0.00 0.00 90 1014.1
20260901135503 41 120 0.0 0.0 0.00 0.00 0.00 89 1012.8
20260901135437 42 120 0.0 0.0 0.00 0.00 0.00 90 1014.1
20260901135007 41 120 0.0 0.0 0.00 0.00 0.00 89 1012.8
20260901134712 42 120 0.0 0.0 0.00 0.00 0.00 89 1014.0
20260901134525 41 120 0.0 0.0 0.00 0.00 0.00 89 1012.7
20260901134422 42 120 0.0 0.0 0.00 0.00 0.00 89 1014.0
20260901134003 41 120 0.0 0.0 0.00 0.00 0.00 89 1012.7
20260901133922 42 120 0.0 0.0 0.00 0.00 0.00 89 1014.0
20260901133503 41 120 0.0 0.0 0.00 0.00 0.00 89 1012.7
20260901133154 42 120 0.0 0.0 0.00 0.00 0.00 89 1014.0
20260901133012 41 120 0.0 0.0 0.00 0.00 0.00 88 1012.6
20260901132648 42 120 0.0 0.0 0.00 0.00 0.00 88 1014.0
20260901132503 41 120 0.0 0.0 0.00 0.00 0.00 87 1012.6
20260901132359 42 120 0.0 0.0 0.00 0.00 0.00 88 1014.1
20260901132003 42 120 0.0 0.0 0.00 0.00 0.00 87 1012.7
20260901131636 42 120 0.0 0.0 0.00 0.00 0.00 88 1014.0
20260901131514 42 120 0.0 0.0 0.00 0.00 0.00 87 1012.6
20260901131130 42 120 0.0 0.0 0.00 0.00 0.00 88 1014.0
20260901131004 42 120 0.0 0.0 0.00 0.00 0.00 87 1012.7
20260901130851 42 120 0.0 0.0 0.00 0.00 0.00 88 1014.1
20260901130503 42 120 0.0 0.0 0.00 0.00 0.00 87 1012.7
20260901130336 42 120 0.0 0.0 0.00 0.00 0.00 87 1014.0
20260901130011 42 120 0.0 0.0 0.00 0.00 0.00 87 1012.7
20260901125834 42 120 0.0 0.0 0.00 0.00 0.00 87 1014.1
20260901125507 42 120 0.0 0.0 0.00 0.00 0.00 87 1012.7
20260901125106 43 120 0.0 0.0 0.00 0.00 0.00 88 1014.1
20260901125014 42 120 0.0 0.0 0.00 0.00 0.00 87 1012.6
20260901124609 43 120 0.0 0.0 0.00 0.00 0.00 88 1014.2
20260901124508 42 120 0.0 0.0 0.00 0.00 0.00 87 1012.8
20260901124054 43 120 0.0 0.0 0.00 0.00 0.00 87 1014.2
20260901124008 42 120 0.0 0.0 0.00 0.00 0.00 87 1012.8
20260901123549 43 120 0.0 0.0 0.00 0.00 0.00 87 1014.3
20260901123510 42 120 0.0 0.0 0.00 0.00 0.00 87 1012.9
20260901123042 43 120 0.0 0.0 0.00 0.00 0.00 87 1014.3
20260901123031 43 120 0.0 0.0 0.00 0.00 0.00 86 1013.0
20260901122504 43 120 0.0 0.0 0.00 0.00 0.00 87 1013.0
20260901122257 43 120 0.0 0.0 0.00 0.00 0.00 87 1014.4
20260901122003 43 120 0.0 0.0 0.00 0.00 0.00 87 1013.1
20260901121524 43 120 0.0 0.0 0.00 0.00 0.00 87 1014.5
20260901121511 43 120 0.0 0.0 0.00 0.00 0.00 87 1013.1
20260901121018 43 120 0.0 0.0 0.00 0.00 0.00 87 1014.4
20260901121006 43 120 0.0 0.0 0.00 0.00 0.00 87 1013.2
20260901120512 43 120 0.0 0.0 0.00 0.00 0.00 88 1014.5
20260901120504 43 120 0.0 0.0 0.00 0.00 0.00 88 1013.2
20260901120014 43 120 0.0 0.0 0.00 0.00 0.00 88 1013.3
20260901120006 44 120 0.0 0.0 0.00 0.00 0.00 88 1014.5
20260901115509 43 120 0.0 0.0 0.00 0.00 0.00 88 1013.4
20260901115500 44 120 0.0 0.0 0.00 0.00 0.00 88 1014.7
20260901115004 43 120 0.0 0.0 0.00 0.00 0.00 87 1013.4
20260901114954 44 120 0.0 0.0 0.00 0.00 0.00 87 1014.9
20260901114705 44 120 0.0 0.0 0.00 0.00 0.00 87 1015.0
20260901114517 43 120 0.0 0.0 0.00 0.00 0.00 87 1013.5
20260901114013 43 120 0.0 0.0 0.00 0.00 0.00 87 1013.6
20260901113942 44 120 0.0 0.0 0.00 0.00 0.00 88 1015.0
20260901113504 43 120 0.0 0.0 0.00 0.00 0.00 87 1013.6
20260901113436 44 120 0.0 0.0 0.00 0.00 0.00 87 1014.9
20260901113017 43 120 0.0 0.0 0.00 0.00 0.00 87 1013.6
20260901112930 44 120 0.0 0.0 0.00 0.00 0.00 88 1014.8
20260901112510 43 120 0.0 0.0 0.00 0.00 0.00 87 1013.6
20260901112424 44 120 0.0 0.0 0.00 0.00 0.00 88 1015.0
20260901112015 43 120 0.0 0.0 0.00 0.00 0.00 87 1013.6
20260901111918 44 120 0.0 0.0 0.00 0.00 0.00 87 1014.9
20260901111511 43 120 0.0 0.0 0.00 0.00 0.00 87 1013.6
20260901111412 44 120 0.0 0.0 0.00 0.00 0.00 88 1015.0
20260901111009 43 120 0.0 0.0 0.00 0.00 0.00 87 1013.6
20260901110906 44 120 0.0 0.0 0.00 0.00 0.00 88 1015.0
20260901110513 43 120 0.0 0.0 0.00 0.00 0.00 86 1013.7
20260901110400 44 120 0.0 0.0 0.00 0.00 0.00 87 1015.0
20260901110009 43 120 0.0 0.0 0.00 0.00 0.00 86 1013.7
20260901105855 44 120 0.0 0.0 0.00 0.00 0.00 87 1015.0
20260901105505 44 120 0.0 0.0 0.00 0.00 0.00 86 1013.6
20260901105348 44 120 0.0 0.0 0.00 0.00 0.00 87 1015.0
20260901105106 44 120 0.0 0.0 0.00 0.00 0.00 87 1015.0
20260901105003 44 120 0.0 0.0 0.00 0.00 0.00 86 1013.6
20260901104532 43 120 0.0 0.0 0.00 0.00 0.00 86 1013.6
20260901104336 44 120 0.0 0.0 0.00 0.00 0.00 87 1015.0
20260901104006 43 120 0.0 0.0 0.00 0.00 0.00 86 1013.6
20260901103830 44 120 0.0 0.0 0.00 0.00 0.00 86 1014.9
20260901103507 43 120 0.0 0.0 0.00 0.00 0.00 86 1013.6
20260901103324 44 120 0.0 0.0 0.00 0.00 0.00 86 1014.9
20260901103020 43 120 0.0 0.0 0.00 0.00 0.00 85 1013.6
20260901102818 44 120 0.0 0.0 0.00 0.00 0.00 86 1015.0
20260901102508 43 120 0.0 0.0 0.00 0.00 0.00 85 1013.6
20260901102313 44 120 0.0 0.0 0.00 0.00 0.00 86 1015.0
20260901102005 43 120 0.0 0.0 0.00 0.00 0.00 85 1013.6
20260901101806 44 120 0.0 0.0 0.00 0.00 0.00 85 1015.0
20260901101523 43 120 0.0 0.0 0.00 0.00 0.00 85 1013.6
20260901101300 44 120 0.0 0.0 0.00 0.00 0.00 85 1015.0
20260901101014 43 120 0.0 0.0 0.00 0.00 0.00 84 1013.6
20260901100754 44 120 0.0 0.0 0.00 0.00 0.00 85 1014.9
20260901100514 43 120 0.0 0.0 0.00 0.00 0.00 84 1013.7
20260901100248 44 120 0.0 0.0 0.00 0.00 0.00 85 1014.9
20260901100019 43 120 0.0 0.0 0.00 0.00 0.00 84 1013.6
20260901095742 44 120 0.0 0.0 0.00 0.00 0.00 85 1015.0
20260901095512 43 120 0.0 0.0 0.00 0.00 0.00 84 1013.6
20260901095235 44 120 0.0 0.0 0.00 0.00 0.00 85 1015.0
20260901095017 43 120 0.0 0.0 0.00 0.00 0.00 84 1013.6
20260901094736 44 120 0.0 0.0 0.00 0.00 0.00 85 1014.9
20260901094514 43 120 0.0 0.0 0.00 0.00 0.00 84 1013.5
20260901094458 44 120 0.0 0.0 0.00 0.00 0.00 84 1014.8
20260901094008 43 120 0.0 0.0 0.00 0.00 0.00 84 1013.5
20260901093736 44 120 0.0 0.0 0.00 0.00 0.00 84 1014.8
20260901093505 43 120 0.0 0.0 0.00 0.00 0.00 83 1013.5
20260901093237 44 120 0.0 0.0 0.00 0.00 0.00 85 1014.9
20260901093018 43 120 0.0 0.0 0.00 0.00 0.00 84 1013.6
20260901092736 44 120 0.0 0.0 0.00 0.00 0.00 84 1014.9
20260901092506 44 120 0.0 0.0 0.00 0.00 0.00 83 1013.5
20260901092237 44 120 0.0 0.0 0.00 0.00 0.00 84 1014.9
20260901092002 44 120 0.0 0.0 0.00 0.00 0.00 83 1013.6
20260901091736 44 120 0.0 0.0 0.00 0.00 0.00 83 1015.0
20260901091503 44 120 0.0 0.0 0.00 0.00 0.00 83 1013.6
20260901091234 44 120 0.0 0.0 0.00 0.00 0.00 83 1015.0
20260901091003 44 120 0.0 0.0 0.00 0.00 0.00 83 1013.6
20260901090732 44 120 0.0 0.0 0.00 0.00 0.00 83 1015.1
20260901090502 44 120 0.0 0.0 0.00 0.00 0.00 83 1013.8
20260901090230 44 120 0.0 0.0 0.00 0.00 0.00 83 1015.1
20260901090008 44 120 0.0 0.0 0.00 0.00 0.00 82 1013.8
20260901085727 44 120 0.0 0.0 0.00 0.00 0.00 82 1015.2
20260901085502 44 120 0.0 0.0 0.00 0.00 0.00 82 1013.9
20260901085226 44 120 0.0 0.0 0.00 0.00 0.00 82 1015.2
20260901085003 44 120 0.0 0.0 0.00 0.00 0.00 82 1014.0
20260901084724 44 120 0.0 0.0 0.00 0.00 0.00 83 1015.2
20260901084505 44 120 0.0 0.0 0.00 0.00 0.00 81 1014.0
20260901084221 45 120 0.0 0.0 0.00 0.00 0.00 82 1015.3
20260901084004 44 120 0.0 0.0 0.00 0.00 0.00 81 1014.1
20260901083938 45 120 0.0 0.0 0.00 0.00 0.00 82 1015.5
20260901083505 44 120 0.0 0.0 0.00 0.00 0.00 81 1014.0
20260901083220 45 120 0.0 0.0 0.00 0.00 0.00 82 1015.5
20260901083011 44 120 0.0 0.0 0.00 0.00 0.00 81 1014.1
20260901082502 45 120 0.0 0.0 0.00 0.00 0.00 80 1014.1
20260901082217 45 120 0.0 0.0 0.00 0.00 0.00 81 1015.5
20260901082002 45 120 0.0 0.0 0.00 0.00 0.00 81 1014.1
20260901081714 45 120 0.0 0.0 0.00 0.00 0.00 81 1015.5
20260901081511 45 120 0.0 0.0 0.00 0.00 0.00 80 1014.1
20260901081215 45 120 0.0 0.0 0.00 0.00 0.00 81 1015.6
20260901081007 45 120 0.0 0.0 0.00 0.00 0.00 80 1014.2
20260901080714 45 120 0.0 0.0 0.00 0.00 0.00 80 1015.7
20260901080504 45 120 0.0 0.0 0.00 0.00 0.00 80 1014.2
20260901080213 46 120 0.0 0.0 0.00 0.00 0.00 80 1015.7
20260901080003 45 120 0.0 0.0 0.00 0.00 0.00 80 1014.2
20260901075714 46 120 0.0 0.0 0.00 0.00 0.00 80 1015.7
20260901075503 45 120 0.0 0.0 0.00 0.00 0.00 80 1014.2
20260901075214 46 120 0.0 0.0 0.00 0.00 0.00 80 1015.7
20260901075007 45 120 0.0 0.0 0.00 0.00 0.00 79 1014.2
20260901074714 46 120 0.0 0.0 0.00 0.00 0.00 80 1015.7
20260901074506 45 120 0.0 0.0 0.00 0.00 0.00 79 1014.3
20260901074213 46 120 0.0 0.0 0.00 0.00 0.00 80 1015.7
20260901074003 46 120 0.0 0.0 0.00 0.00 0.00 79 1014.2
20260901073710 46 120 0.0 0.0 0.00 0.00 0.00 79 1015.7
20260901073503 46 120 0.0 0.0 0.00 0.00 0.00 79 1014.2
20260901073209 46 120 0.0 0.0 0.00 0.00 0.00 79 1015.7
20260901073006 46 120 0.0 0.0 0.00 0.00 0.00 79 1014.2
20260901072710 46 120 0.0 0.0 0.00 0.00 0.00 79 1015.7
20260901072507 46 120 0.0 0.0 0.00 0.00 0.00 78 1014.2
20260901072210 46 120 0.0 0.0 0.00 0.00 0.00 79 1015.8
20260901072010 46 120 0.0 0.0 0.00 0.00 0.00 78 1014.2
20260901071710 46 120 0.0 0.0 0.00 0.00 0.00 78 1015.7
20260901071507 46 120 0.0 0.0 0.00 0.00 0.00 78 1014.2
20260901071434 47 120 0.0 0.0 0.00 0.00 0.00 79 1015.7
20260901071011 46 120 0.0 0.0 0.00 0.00 0.00 78 1014.2
20260901070927 47 120 0.0 0.0 0.00 0.00 0.00 78 1015.8
20260901070510 46 120 0.0 0.0 0.00 0.00 0.00 78 1014.3
20260901070438 47 120 0.0 0.0 0.00 0.00 0.00 78 1015.8
20260901070017 46 120 0.0 0.0 0.00 0.00 0.00 78 1014.3
20260901065926 47 120 0.0 0.0 0.00 0.00 0.00 78 1015.7
20260901065503 46 120 0.0 0.0 0.00 0.00 0.00 77 1014.3
20260901065204 47 120 0.0 0.0 0.00 0.00 0.00 78 1015.8
20260901065008 46 120 0.0 0.0 0.00 0.00 0.00 77 1014.3
20260901064921 47 120 0.0 0.0 0.00 0.00 0.00 78 1015.8
20260901064521 47 120 0.0 0.0 0.00 0.00 0.00 77 1014.4
20260901064152 47 120 0.0 0.0 0.00 0.00 0.00 77 1015.9
20260901064003 47 120 0.0 0.0 0.00 0.00 0.00 76 1014.4
20260901063646 47 120 0.0 0.0 0.00 0.00 0.00 77 1015.9
20260901063503 47 120 0.0 0.0 0.00 0.00 0.00 76 1014.4
20260901063405 47 120 0.0 0.0 0.00 0.00 0.00 77 1015.9
20260901063007 47 120 0.0 0.0 0.00 0.00 0.00 77 1014.5
20260901062635 47 120 0.0 0.0 0.00 0.00 0.00 77 1015.9
20260901062503 47 120 0.0 0.0 0.00 0.00 0.00 77 1014.4
20260901062128 48 120 0.0 0.0 0.00 0.00 0.00 76 1015.9
20260901062008 47 120 0.0 0.0 0.00 0.00 0.00 75 1014.4
20260901061622 48 120 0.0 0.0 0.00 0.00 0.00 77 1015.9
20260901061510 47 120 0.0 0.0 0.00 0.00 0.00 77 1014.4
20260901061116 48 120 0.0 0.0 0.00 0.00 0.00 76 1015.9
20260901061007 47 120 0.0 0.0 0.00 0.00 0.00 76 1014.4
20260901060839 48 120 0.0 0.0 0.00 0.00 0.00 75 1015.9
20260901060503 47 120 0.0 0.0 0.00 0.00 0.00 74 1014.5
20260901060104 48 120 0.0 0.0 0.00 0.00 0.00 76 1015.9
20260901060012 48 120 0.0 0.0 0.00 0.00 0.00 76 1014.5
20260901055558 48 120 0.0 0.0 0.00 0.00 0.00 75 1015.9
20260901055509 48 120 0.0 0.0 0.00 0.00 0.00 75 1014.5
20260901055052 48 120 0.0 0.0 0.00 0.00 0.00 75 1015.9
20260901055009 48 120 0.0 0.0 0.00 0.00 0.00 74 1014.5
20260901054546 49 120 0.0 0.0 0.00 0.00 0.00 74 1016.0
20260901054510 48 120 0.0 0.0 0.00 0.00 0.00 74 1014.6
20260901054040 49 120 0.0 0.0 0.00 0.00 0.00 74 1015.9
20260901054007 48 120 0.0 0.0 0.00 0.00 0.00 74 1014.6
20260901053534 49 120 0.0 0.0 0.00 0.00 0.00 74 1016.0
20260901053510 48 120 0.0 0.0 0.00 0.00 0.00 74 1014.7
20260901053027 49 120 0.0 0.0 0.00 0.00 0.00 73 1016.1
20260901053023 49 120 0.0 0.0 0.00 0.00 0.00 73 1014.8
20260901052502 49 120 0.0 0.0 0.00 0.00 0.00 73 1014.8
20260901052016 49 120 0.0 0.0 0.00 0.00 0.00 73 1016.3
20260901052007 49 120 0.0 0.0 0.00 0.00 0.00 72 1014.9
20260901051510 50 120 0.0 0.0 0.00 0.00 0.00 72 1016.1
20260901051507 49 120 0.0 0.0 0.00 0.00 0.00 72 1014.9
20260901051225 50 120 0.0 0.0 0.00 0.00 0.00 72 1016.1
20260901051003 49 120 0.0 0.0 0.00 0.00 0.00 71 1015.0
20260901050717 50 120 0.0 0.0 0.00 0.00 0.00 72 1016.1
20260901050505 50 120 0.0 0.0 0.00 0.00 0.00 72 1014.9
20260901050012 50 120 0.0 0.0 0.00 0.00 0.00 71 1015.0
20260901045952 50 120 0.0 0.0 0.00 0.00 0.00 71 1016.1
20260901045507 50 120 0.0 0.0 0.00 0.00 0.00 70 1015.0
20260901045446 50 120 0.0 0.0 0.00 0.00 0.00 71 1016.1
20260901045008 50 120 0.0 0.0 0.00 0.00 0.00 70 1015.0
20260901044942 51 120 0.0 0.0 0.00 0.00 0.00 70 1016.1
20260901044657 51 120 0.0 0.0 0.00 0.00 0.00 71 1016.3
20260901044517 50 120 0.0 0.0 0.00 0.00 0.00 70 1015.2
20260901044010 50 120 0.0 0.0 0.00 0.00 0.00 69 1015.1
20260901043928 51 120 0.0 0.0 0.00 0.00 0.00 69 1016.3
20260901043511 51 120 0.0 0.0 0.00 0.00 0.00 69 1015.2
20260901043422 51 120 0.0 0.0 0.00 0.00 0.00 69 1016.4
20260901043018 51 120 0.0 0.0 0.00 0.00 0.00 68 1015.2
20260901042916 51 120 0.0 0.0 0.00 0.00 0.00 68 1016.5
20260901042513 51 120 0.0 0.0 0.00 0.00 0.00 68 1015.2
20260901042410 52 120 0.0 0.0 0.00 0.00 0.00 69 1016.5
20260901042012 52 120 0.0 0.0 0.00 0.00 0.00 66 1015.2
20260901041904 52 120 0.0 0.0 0.00 0.00 0.00 67 1016.5
20260901041509 52 120 0.0 0.0 0.00 0.00 0.00 66 1015.2
20260901041358 52 120 0.0 0.0 0.00 0.00 0.00 67 1016.5
20260901041007 52 120 0.0 0.0 0.00 0.00 0.00 65 1015.3
20260901040852 53 120 0.0 0.0 0.00 0.00 0.00 66 1016.5
20260901040514 52 120 0.0 0.0 0.00 0.00 0.00 66 1015.2
20260901040346 53 120 0.0 0.0 0.00 0.00 0.00 65 1016.6
20260901040010 53 120 0.0 0.0 0.00 0.00 0.00 65 1015.2
20260901035503 53 120 0.0 0.0 0.00 0.00 0.00 65 1015.2
20260901035334 53 120 0.0 0.0 0.00 0.00 0.00 65 1016.5
20260901035010 53 120 0.0 0.0 0.00 0.00 0.00 64 1015.3
20260901034828 54 120 0.0 0.0 0.00 0.00 0.00 65 1016.6
20260901034517 53 120 0.0 0.0 0.00 0.00 0.00 64 1015.2
20260901034322 54 120 0.0 0.0 0.00 0.00 0.00 63 1016.6
20260901034004 54 120 0.0 0.0 0.00 0.00 0.00 63 1015.2
20260901033816 54 120 0.0 0.0 0.00 0.00 0.00 63 1016.5
20260901033539 54 119 0.0 0.0 0.00 0.00 0.00 63 1016.5
20260901033510 54 119 0.0 0.0 0.00 0.00 0.00 62 1015.2
20260901033026 54 119 0.0 0.0 0.00 0.00 0.00 61 1015.2
20260901032804 55 119 0.0 0.0 0.00 0.00 0.00 62 1016.5
20260901032511 54 114 0.0 0.0 0.00 0.00 0.00 61 1015.2
20260901032259 55 115 0.0 0.0 0.00 0.00 0.00 62 1016.4
20260901032007 55 115 0.0 0.0 0.00 0.00 0.00 61 1015.1
20260901031751 55 115 0.0 0.0 0.00 0.00 0.00 61 1016.4
20260901031531 55 115 0.0 0.0 0.00 0.00 0.00 60 1015.0
20260901031506 55 116 0.0 0.0 0.00 0.00 0.00 61 1016.3
20260901031015 55 116 0.0 0.0 0.00 0.00 0.00 60 1015.0
20260901030741 56 116 0.0 0.0 0.00 0.00 0.00 61 1016.3
20260901030512 55 116 0.0 0.0 0.00 0.00 0.00 60 1015.0
20260901030234 56 115 0.0 0.0 0.00 0.00 0.00 61 1016.3
20260901030016 56 115 0.0 0.0 0.00 0.00 0.00 60 1015.0
20260901025728 56 115 0.0 0.0 0.00 0.00 0.00 60 1016.3
20260901025513 56 113 0.0 0.0 0.00 0.00 0.00 59 1015.2
20260901025222 57 113 0.0 0.0 0.00 0.00 0.00 60 1016.3
20260901025016 56 113 0.0 0.0 0.00 0.00 0.00 60 1015.1
20260901024939 57 115 0.0 0.0 0.00 0.00 0.00 59 1016.3
20260901024516 57 116 0.0 0.0 0.00 0.00 0.00 59 1015.0
20260901024210 58 115 0.0 0.0 0.00 0.00 0.00 58 1016.3
20260901024004 58 115 0.0 0.0 0.00 0.00 0.00 57 1015.1
20260901023704 59 115 0.0 0.0 0.00 0.00 0.00 57 1016.3
20260901023507 59 117 0.0 0.0 0.00 0.00 0.00 56 1015.1
20260901023422 60 117 0.0 0.0 0.00 0.00 0.00 55 1016.3
20260901023026 60 117 0.0 0.0 0.00 0.00 0.00 54 1015.1
20260901022652 61 117 0.0 0.0 0.00 0.00 0.00 55 1016.3
20260901022505 61 117 0.0 0.0 0.00 0.00 0.00 54 1015.1
20260901022146 62 117 0.0 0.0 0.00 0.00 0.00 53 1016.3
20260901022004 62 118 0.0 0.0 0.00 0.00 0.00 52 1015.2
20260901021640 63 117 0.0 0.0 0.00 0.00 0.00 51 1016.4
20260901021503 63 117 0.0 0.0 0.00 0.00 0.00 50 1015.2
20260901021134 64 119 0.0 0.0 0.00 0.00 0.00 51 1016.4
20260901021004 64 119 0.0 2.0 0.00 0.00 0.00 50 1015.1
20260901020628 65 119 0.0 2.0 0.00 0.00 0.00 48 1016.5
20260901020502 65 119 0.0 2.0 0.00 0.00 0.00 47 1015.2
20260901020123 66 119 0.0 2.0 0.00 0.00 0.00 48 1016.4
20260901020016 66 121 0.0 2.0 0.00 0.00 0.00 47 1015.2
20260901015845 66 121 0.0 2.0 0.00 0.00 0.00 47 1016.5
20260901015504 66 121 0.0 2.0 0.00 0.00 0.00 46 1015.3
20260901015347 67 121 0.0 1.0 0.00 0.00 0.00 46 1016.5
20260901015007 66 122 0.0 1.0 0.00 0.00 0.00 44 1015.3
20260901014620 67 122 0.0 2.0 0.00 0.00 0.00 46 1016.6
20260901014507 67 122 0.0 3.0 0.00 0.00 0.00 45 1015.3
20260901014119 68 122 1.0 3.0 0.00 0.00 0.00 46 1016.6
20260901014004 67 122 0.0 4.0 0.00 0.00 0.00 44 1015.2
20260901013849 68 118 1.0 8.0 0.00 0.00 0.00 44 1016.6
20260901013509 68 118 1.0 8.0 0.00 0.00 0.00 45 1015.2
20260901013120 68 115 1.0 8.0 0.00 0.00 0.00 43 1016.6
20260901013012 68 114 2.0 8.0 0.00 0.00 0.00 44 1015.3
20260901012840 68 137 1.0 4.0 0.00 0.00 0.00 43 1016.6
20260901012504 68 132 1.0 4.0 0.00 0.00 0.00 43 1015.2
20260901012005 68 115 1.0 6.0 0.00 0.00 0.00 43 1015.3
20260901011620 69 119 2.0 6.0 0.00 0.00 0.00 44 1016.6
20260901011519 68 116 1.0 6.0 0.00 0.00 0.00 43 1015.3
20260901011120 68 105 1.0 6.0 0.00 0.00 0.00 44 1016.7
20260901011007 68 103 1.0 4.0 0.00 0.00 0.00 45 1015.3
20260901010619 68 107 1.0 3.0 0.00 0.00 0.00 44 1016.7
20260901010504 67 107 0.0 3.0 0.00 0.00 0.00 43 1015.4
20260901010115 68 110 2.0 7.0 0.00 0.00 0.00 43 1016.7
20260901010004 67 111 0.0 7.0 0.00 0.00 0.00 43 1015.5
20260901005616 68 103 3.0 9.0 0.00 0.00 0.00 44 1016.8
20260901005502 67 101 3.0 9.0 0.00 0.00 0.00 44 1015.4
20260901005115 67 123 1.0 9.0 0.00 0.00 0.00 45 1016.8
20260901005002 67 95 3.0 9.0 0.00 0.00 0.00 43 1015.5
20260901004616 67 113 1.0 5.0 0.00 0.00 0.00 43 1016.9
20260901004503 67 121 0.0 5.0 0.00 0.00 0.00 43 1015.6
20260901004115 67 118 1.0 5.0 0.00 0.00 0.00 44 1016.9
20260901004002 67 118 1.0 5.0 0.00 0.00 0.00 43 1015.5
20260901003615 67 234 1.0 6.0 0.00 0.00 0.00 44 1017.1
20260901003503 67 169 1.0 6.0 0.00 0.00 0.00 44 1015.6
20260901003116 67 119 2.0 7.0 0.00 0.00 0.00 47 1017.1
20260901003009 67 119 1.0 7.0 0.00 0.00 0.00 46 1015.6
20260901002616 67 123 1.0 7.0 0.00 0.00 0.00 45 1017.2
20260901002504 67 145 1.0 7.0 0.00 0.00 0.00 44 1015.7
20260901002112 67 107 1.0 4.0 0.00 0.00 0.00 46 1017.1
20260901002008 67 126 0.0 4.0 0.00 0.00 0.00 45 1015.7
20260901001611 67 116 2.0 4.0 0.00 0.00 0.00 48 1017.1
20260901001512 67 116 0.0 4.0 0.00 0.00 0.00 48 1015.7
20260901001112 67 119 2.0 6.0 0.00 0.00 0.00 45 1017.2
20260901001010 67 96 0.0 7.0 0.00 0.00 0.00 46 1015.7
20260901000612 67 119 2.0 10.0 0.00 0.00 0.00 47 1017.2
20260901000510 67 128 1.0 10.0 0.00 0.00 0.00 44 1015.7
20260901000112 67 111 3.0 10.0 0.00 0.00 0.00 45 1017.3
20260901000008 67 109 4.0 10.0 0.00 0.00 0.00 44 1015.8
20260831235611 68 126 2.0 9.0 0.00 0.00 0.00 45 1017.3
20260831235504 67 122 4.0 9.0 0.00 0.00 0.00 46 1015.9
20260831235335 68 177 3.0 7.0 0.00 0.00 0.00 47 1017.4
20260831235003 67 100 3.0 10.0 0.00 0.00 0.00 45 1015.9
20260831234837 68 101 3.0 10.0 0.00 0.00 0.00 44 1017.4
20260831234506 67 103 2.0 10.0 0.00 0.00 0.00 44 1015.9
20260831234341 68 109 2.0 10.0 0.00 0.00 0.00 44 1017.4
20260831234003 67 72 2.0 6.0 0.00 0.00 0.00 44 1016.0
20260831233604 68 78 3.0 12.0 0.00 0.00 0.00 44 1017.5
20260831233504 67 150 1.0 12.0 0.00 0.00 0.00 44 1016.0
20260831233057 68 108 3.0 12.0 0.00 0.00 0.00 44 1017.4
20260831233008 67 104 2.0 12.0 0.00 0.00 0.00 45 1016.0
20260831232813 68 124 2.0 8.0 0.00 0.00 0.00 44 1017.5
20260831232503 68 124 3.0 8.0 0.00 0.00 0.00 43 1016.0
20260831232003 67 114 0.0 8.0 0.00 0.00 0.00 44 1016.0
20260831231545 68 94 2.0 6.0 0.00 0.00 0.00 44 1017.5
20260831231513 67 94 2.0 6.0 0.00 0.00 0.00 43 1016.1
20260831231043 68 115 1.0 7.0 0.00 0.00 0.00 44 1017.6
20260831231005 67 115 0.0 7.0 0.00 0.00 0.00 42 1016.1
20260831230544 68 111 2.0 7.0 0.00 0.00 0.00 46 1017.7
20260831230503 67 111 0.0 9.0 0.00 0.00 0.00 45 1016.2
20260831230044 68 109 2.0 9.0 0.00 0.00 0.00 46 1017.9
20260831230018 67 110 2.0 9.0 0.00 0.00 0.00 46 1016.2
20260831225541 68 110 2.0 9.0 0.00 0.00 0.00 46 1017.9
20260831225509 68 111 2.0 9.0 0.00 0.00 0.00 45 1016.2
20260831225042 68 117 2.0 4.0 0.00 0.00 0.00 46 1017.9
20260831225011 68 111 1.0 4.0 0.00 0.00 0.00 45 1016.3
20260831224541 68 107 2.0 7.0 0.00 0.00 0.00 45 1017.9
20260831224509 68 118 0.0 7.0 0.00 0.00 0.00 44 1016.3
20260831224042 68 111 2.0 7.0 0.00 0.00 0.00 47 1018.1
20260831224008 68 113 3.0 7.0 0.00 0.00 0.00 46 1016.4
20260831223541 68 105 1.0 6.0 0.00 0.00 0.00 46 1018.0
20260831223512 68 107 0.0 6.0 0.00 0.00 0.00 45 1016.5
20260831223039 68 109 1.0 4.0 0.00 0.00 0.00 43 1018.1
20260831223007 68 103 0.0 4.0 0.00 0.00 0.00 43 1016.6